Home   Weather   Gitarama   Past weeks

Flag for Rwanda Past Weather in Gitarama, Rwanda — Yesterday and Last 2 Weeks

79 °F

Scattered clouds.

Feels Like: 80 °F
Forecast: 58 / 77 °F
Wind: 5 mph from South

Location: Kigali Airport

Current Time: Oct 27, 2016 at 4:50:16 PM

Latest Report: Oct 27, 2016 at 4:00 PM

Visibility: N/A

Pressure: 30.01 "Hg (24.23 "Hg at 1872m altitude)

Humidity: 48%

Dew Point: 57 °F

Location of GitaramaLocation

Past Weather in Gitarama — Graph


Gitarama Temperature Yesterday

Maximum temperature yesterday: 77 °F (at 9:30 AM)
Minimum temperature yesterday: 61 °F (at 3:00 PM)
Average temperature yesterday: 67 °F

High & Low Weather Summary for the Past Weeks

High86 °F (Oct 16, 2:00 PM)100% (Oct 27, 4:00 AM)30.21 "Hg (Oct 27, 4:00 AM)
Low61 °F (Oct 19, 5:30 AM)27% (Oct 24, 4:30 PM)29.95 "Hg (Oct 24, 3:30 PM)
Average73 °F59%30.08 "Hg
* Reported Oct 12 3:00 PM — Oct 27 3:30 PM, Gitarama, Weather by CustomWeather, © 2016

Note: Actual official high and low records may vary slightly from our data, if they occured in-between our weather recording intervals... More about our weather records


Gitarama Weather History for the Previous 24 Hours

Scroll right to see more
Time TempWeatherWind HumidityBarometerVisibility
3:30 PM
Thu, Oct 27
79 °FScattered clouds.3 mph48%30.01 "HgN/A
3:00 PM79 °FScattered clouds.2 mph51%30.01 "HgN/A
2:30 PM77 °FScattered clouds.3 mph57%30.01 "HgN/A
1:00 PM75 °FBroken clouds.3 mph54%30.07 "HgN/A
12:00 PM70 °FBroken clouds.5 mph73%30.09 "HgN/A
11:30 AM68 °FBroken clouds.3 mph83%30.12 "HgN/A
11:00 AM68 °FBroken clouds.2 mph83%30.12 "HgN/A
10:00 AM68 °FBroken clouds.2 mph78%30.12 "HgN/A
9:30 AM68 °FBroken clouds.1 mph78%30.12 "HgN/A
9:00 AM68 °FBroken clouds.5 mph78%30.12 "HgN/A
8:30 AM66 °FBroken clouds.6 mph83%30.12 "HgN/A
8:00 AM64 °FPartly sunny.7 mph88%30.12 "HgN/A
7:30 AM64 °FPartly sunny.6 mph88%30.12 "HgN/A
5:00 AM61 °FPartly cloudy.No wind94%30.04 "Hg4 mi
4:30 AM61 °FPartly cloudy.No wind100%30.01 "Hg5 mi
4:00 AM61 °FPartly cloudy.No wind100%30.01 "Hg4 mi
11:00 PM
Wed, Oct 26
63 °FPassing clouds.3 mph83%30.04 "HgN/A
9:00 PM63 °FPassing clouds.10 mph88%30.04 "HgN/A
8:30 PM63 °FPassing clouds.10 mph83%30.04 "HgN/A
8:00 PM63 °FLight rain. Passing clouds.12 mph88%30.04 "HgN/A
7:30 PM63 °FLight rain. Passing clouds.14 mph88%30.04 "HgN/A
5:00 PM61 °FThunderstorms. Partly sunny.8 mph94%30.01 "HgN/A
Weather by CustomWeather, © 2016

See weather overviewHow to use our weather pages